This is the latest recevied weather packets stored in our database for station/object OE3TEC-15. If no packets are shown the sender has not sent any weather packets the latest 10 day(s).
| Time | Temp. | Humidity | Pressure | Rain* | Wind** | Luminosity | Snow |
|---|---|---|---|---|---|---|---|
| 1777738496 | 23.89° C | 25% | 1020.9 hPa | 0 mm | - | 66 W/m² | - |
| 1777737888 | 23.89° C | 25% | 1021 hPa | 0 mm | - | 93 W/m² | - |
| 1777737281 | 24.44° C | 25% | 1021.1 hPa | 0 mm | - | 110 W/m² | - |
| 1777736674 | 25.56° C | 24% | 1021 hPa | 0 mm | - | 157 W/m² | - |
| 1777736066 | 25° C | 25% | 1021.3 hPa | 0 mm | - | 195 W/m² | - |
| 1777735459 | 24.44° C | 24% | 1021.3 hPa | 0 mm | - | 175 W/m² | - |
| 1777734852 | 25° C | 24% | 1021.7 hPa | 0 mm | - | 228 W/m² | - |
| 1777734244 | 25° C | 25% | 1021.6 hPa | 0 mm | - | 264 W/m² | - |
| 1777733637 | 25.56° C | 25% | 1021.7 hPa | 0 mm | - | 288 W/m² | - |
| 1777733031 | 26.11° C | 24% | 1021.7 hPa | 0 mm | - | 310 W/m² | - |
| 1777732424 | 25.56° C | 25% | 1021.8 hPa | 0 mm | - | 335 W/m² | - |
| 1777731816 | 25.56° C | 25% | 1021.8 hPa | 0 mm | - | 361 W/m² | - |
| 1777731209 | 26.11° C | 24% | 1022 hPa | 0 mm | - | 387 W/m² | - |
| 1777730603 | 25° C | 24% | 1022.1 hPa | 0 mm | - | 414 W/m² | - |
| 1777729995 | 25.56° C | 25% | 1022.1 hPa | 0 mm | - | 442 W/m² | - |
| 1777729388 | 24.44° C | 26% | 1022.4 hPa | 0 mm | - | 466 W/m² | - |
| 1777728781 | 23.89° C | 27% | 1022.4 hPa | 0 mm | - | 489 W/m² | - |
| 1777728172 | 23.89° C | 26% | 1022.5 hPa | 0 mm | - | 510 W/m² | - |
| 1777727565 | 25° C | 25% | 1022.7 hPa | 0 mm | - | 527 W/m² | - |
| 1777726959 | 25° C | 26% | 1022.8 hPa | 0 mm | - | 544 W/m² | - |
| 1777726351 | 24.44° C | 25% | 1022.9 hPa | 0 mm | - | 559 W/m² | - |
| 1777725744 | 24.44° C | 26% | 1023.2 hPa | 0 mm | - | 576 W/m² | - |
| 1777725144 | 25° C | 26% | 1023.1 hPa | 0 mm | - | 591 W/m² | - |
| 1777724539 | 23.89° C | 26% | 1023.5 hPa | 0 mm | - | 604 W/m² | - |
| 1777723932 | 24.44° C | 26% | 1023.6 hPa | 0 mm | - | 617 W/m² | - |
* Rain latest hour (hover to see other rain measurements)
** Current wind speed in m/s (hover to see current wind gust speed)